Regional Weather Roundup
Issued by NWS Boston, MA

Home | Current Version | Previous Version | Text Only | Print | Product List | Glossary On
Versions: 1 2 3 4 5 6 7 8 9 10 11 12 13 14 15 16 17 18 19 20 21 22 23 24 25 26 27 28 29 30 31 32 33 34 35 36 37 38 39 40 41 42 43 44 45 46 47 48 49 50
530
ASUS41 KBOX 181600
RWRBOX

REGIONAL WEATHER ROUNDUP
NATIONAL WEATHER SERVICE BOSTON/NORTON MA
1100 AM EST FRI JAN 18 2019

NOTE:  "FAIR" INDICATES FEW OR NO CLOUDS BELOW 12,000 FEET WITH NO
SIGNIFICANT WEATHER AND/OR OBSTRUCTIONS TO VISIBILITY.

MAZALL-181700-
EASTERN MASSACHUSETTS

CITY           SKY/WX    TMP DP  RH WIND       PRES   REMARKS
BOSTON         CLOUDY    36  26  67 SE7       30.13F WCI  30
BEVERLY        CLOUDY    37  26  64 S10       30.12F WCI  30
LAWRENCE       CLOUDY    28  15  58 CALM      30.14F
BEDFORD        NOT AVBL
BLUE HILL        N/A     33  27  78 SE7       30.08F WCI  27
NORWOOD        CLOUDY    36  26  67 CALM      30.13F
MARSHFIELD     NOT AVBL
PLYMOUTH       PTSUNNY   36  30  79 SE7       30.13S WCI  30
TAUNTON        CLOUDY    36  29  75 SE7       30.13S WCI  30
NEW BEDFORD    PTSUNNY   36  32  85 E8        30.12S WCI  30
$$

MAZALL-181700-
CAPE COD AND THE ISLANDS

CITY           SKY/WX    TMP DP  RH WIND       PRES   REMARKS
FALMOUTH       CLOUDY    36  32  87 SE10      30.12S WCI  28
HYANNIS        NOT AVBL
CHATHAM        CLOUDY    35  32  88 E7        30.13F WCI  29
PROVINCETOWN   PTSUNNY   37  32  82 SE8       30.14F WCI  31
NANTUCKET      LGT RAIN  34  34 100 E10       30.10F WCI  26
MARTHAS VNYRD  FLURRIES  35  34  96 E8        30.11F WCI  29
$$

MAZALL-181700-
CENTRAL AND WESTERN MASSACHUSETTS

CITY           SKY/WX    TMP DP  RH WIND       PRES   REMARKS
WORCESTER      CLOUDY    27  21  78 SE5       30.07F WCI  22
FITCHBURG      CLOUDY    27  17  66 SE5       30.12F WCI  22
ORANGE         CLOUDY    29  19  66 CALM      30.10F
SPRINGFIELD    CLOUDY    29  18  61 CALM      30.10F
WESTFIELD      CLOUDY    29  15  56 CALM      30.11F
NORTH ADAMS    FLURRIES  29  23  78 E6        30.05F WCI  23
PITTSFIELD     CLOUDY    26  20  77 N3        30.02F
$$

RIZALL-181700-
RHODE ISLAND

CITY           SKY/WX    TMP DP  RH WIND       PRES   REMARKS
PROVIDENCE     PTSUNNY   34  26  72 VRB3      30.13F
NEWPORT        CLOUDY    35  31  85 E5        30.11F WCI  31
BLOCK ISLAND   CLOUDY    38  34  85 E8          N/A
SMITHFIELD     CLOUDY    31  26  82 SE7       30.11F WCI  24
WESTERLY       CLOUDY    37  31  78 NE3       30.12F
$$

CTZALL-181700-
CONNECTICUT

CITY           SKY/WX    TMP DP  RH WIND       PRES   REMARKS
BRADLEY INTL   CLOUDY    30  18  60 CALM      30.12F
HARTFORD       CLOUDY    32  23  69 CALM      30.13F
BRIDGEPORT     CLOUDY    34  29  82 NE3       30.12F
DANBURY        CLOUDY    31  25  78 CALM      30.11F
GROTON         NOT AVBL
NEW HAVEN      CLOUDY    33  26  75 N5        30.12F HAZE    WCI  29
CHESTER        LGT SNOW  32  28  86 CALM      30.10F
MERIDEN        CLOUDY    30  23  75 W3        30.12F
WILLIMANTIC    CLOUDY    30  24  78 CALM      30.12F
OXFORD         CLOUDY    32  28  85 CALM      30.10S
$$

MEZ002-015-021-024-NHZ003-005-008-011-012-014-VTZ005-008-181700-
NORTHERN NEW ENGLAND

CITY           SKY/WX    TMP DP  RH WIND       PRES   REMARKS
PORTLAND ME    CLOUDY    25  11  55 CALM      30.14F
BANGOR ME      LGT SNOW  24  21  88 S3        30.13F FOG
CONCORD NH     CLOUDY    22  13  68 CALM      30.11F
MANCHESTER NH  CLOUDY    27  12  53 CALM      30.11F
NASHUA NH      CLOUDY    26  13  57 CALM      30.13F
PORTSMOUTH NH  CLOUDY    28  12  50 CALM      30.12F
JAFFREY NH     CLOUDY    30  24  78 S12       30.05F WCI  20
KEENE NH       CLOUDY    27  18  69 W3        30.09F
BURLINGTON VT  LGT SNOW  27  20  75 S13G21    29.99F WCI  16
MT. WASHINGTON NOT AVBL
$$

NYZ052-076-181700-
EASTERN NEW YORK

CITY           SKY/WX    TMP DP  RH WIND       PRES   REMARKS
ALBANY         FLURRIES  30  22  72 S10       30.08S WCI  21
NEW YORK CITY  CLOUDY    35  31  85 NE5       30.12S WCI  31
$$

ANZALL-181700-
MARINE OBSERVATIONS

STATION/POSITION TIME  TEMP    WIND        PRES    VSBY  WAVE
                       AIR SEA DIR/SP/G                  HT/PER
                 (UTC) (F)     (DEG/KT/KT) (MB)    (MI)  (FT/S)
BOSTON BUOY      1450   36 42  120/ 12/ 14 1020.2          2/ 3
BUZZARDS BAY     1500   34      90/ 14/ 15 1020.4F
NANTUCKET SOUND  1540   35 36  100/ 12/ 16 1020.1F
MASS BAY-STELLWA 1504   36 42  150/ 12/ 14 1019.6F  1 7/8  2/ 4
ISLE OF SHOALS   1500   34     180/ 10/ 12 1020.5F
S OF BLOCK IS    1530      45                N/A           4/ 6
$$

......................KEY.........................
  SKY/WX - SKY CONDITION/PRESENT WEATHER
  TMP    - TEMPERATURE IN FAHRENHEIT
  DWPT   - DEWPOINT IN FAHRENHEIT
  RH     - RELATIVE HUMIDITY IN PERCENT
  WIND   - DIRECTION AND SPEED IN MPH
  PRES   - MEAN SEA LEVEL PRESSURE IN INCHES OF HG
  WCI    - WIND CHILL INDEX
  VSB    - VISIBILITY IN MILES
  HX     - HEAT INDEX
  TC     - TEMPERATURE IN CELSIUS
  VRB    - VARIABLE WIND DIRECTION
  N/A    - NOT AVAILABLE




USA.gov is the U.S. government's official web portal to all federal, state and local government web resources and services.